Theta_e
308 309 309 309 311 312 312 311 309 310 309 310 311 312 311 311 312 312 313 314 315 315 313 316 315 315 318 313 326 344 343 344 343 343 346 345 345 344 343 343 341 342 341 336 335 336 337 337 336 337 337 337 338 337 337 338 338 339 340 339 338 338 336 335 336 336 336 336 336 336 336 335 335 335 335 336 337 337 337 337 337 338 338 338 338 339
308 309 309 309 311 312 312 312 310 310 309 309 310 310 311 310 311 312 313 314 315 314 314 316 314 316 316 313 336 352 345 344 343 344 346 345 344 343 343 342 341 342 339 335 336 336 336 337 336 336 336 337 337 336 338 338 337 338 339 339 337 336 335 336 337 336 336 336 337 337 336 335 336 336 335 336 337 337 338 338 338 339 338 338 339 339
308 309 309 309 312 313 313 312 310 310 310 309 309 309 311 311 311 312 313 314 314 313 314 315 314 315 314 319 339 349 343 342 341 343 346 344 342 342 341 340 341 342 338 336 337 335 336 337 336 335 335 337 336 336 337 337 337 337 338 337 336 335 335 335 336 336 336 337 337 337 336 336 336 337 336 337 338 338 338 339 340 340 340 340 340 339
308 308 308 309 311 313 313 311 310 310 310 310 309 310 311 311 311 310 312 314 312 314 315 316 314 312 319 330 338 340 340 339 339 342 343 342 342 341 340 340 340 341 338 337 336 336 336 336 336 335 334 336 336 336 337 337 337 337 337 337 335 335 335 334 336 336 336 336 337 337 336 336 337 337 338 338 338 338 339 340 340 340 340 340 339 338
308 308 308 309 311 312 312 311 310 310 310 310 309 309 310 311 311 311 313 313 312 314 314 314 313 311 321 333 338 341 341 340 340 342 341 340 341 339 339 338 338 340 338 337 336 336 337 336 335 335 335 336 336 337 337 337 337 336 336 336 335 336 335 335 336 336 337 337 338 338 337 337 337 337 337 337 338 338 338 339 339 340 340 338 338 338
307 308 308 308 310 310 311 311 310 310 310 310 309 309 310 311 311 311 312 311 311 312 313 313 310 313 326 336 343 344 343 343 341 341 341 341 340 339 339 338 338 338 338 337 336 335 336 336 335 335 335 335 336 337 337 337 337 336 335 334 335 335 335 335 335 336 337 337 337 338 338 337 336 336 336 337 338 337 338 339 339 339 338 337 337 337
307 308 308 308 309 309 310 310 309 309 310 310 310 310 310 311 311 312 311 310 312 313 315 314 310 315 326 337 347 345 343 344 341 340 341 340 340 340 339 338 338 338 338 338 336 335 336 336 336 336 335 336 336 336 337 337 336 336 335 335 335 335 335 335 335 336 337 337 337 337 337 338 337 336 337 337 338 337 338 338 338 337 335 335 335 334
308 308 308 307 308 309 309 310 309 309 309 309 311 311 311 311 310 311 309 310 314 314 315 314 311 312 315 329 344 344 344 345 341 341 341 340 340 339 338 338 337 338 338 338 336 336 337 336 336 337 336 335 336 337 338 337 336 336 336 336 336 336 336 335 336 337 337 337 338 337 337 338 337 337 337 337 337 336 336 336 336 335 333 332 332 331
308 308 308 308 308 308 308 310 309 308 308 309 310 311 312 311 311 312 311 311 313 312 314 313 313 312 311 329 345 343 344 345 342 342 341 340 340 339 339 338 337 337 337 337 337 337 337 336 337 337 335 335 336 337 338 337 337 337 336 337 337 337 337 337 337 337 337 337 337 337 337 337 337 337 337 337 336 335 335 336 334 332 331 330 329 329
308 308 309 308 308 308 308 309 308 308 309 309 311 312 311 311 311 312 311 311 311 312 315 312 312 311 312 334 348 345 345 346 342 342 341 341 340 338 339 338 337 338 337 337 336 336 337 336 335 335 334 335 336 337 337 337 337 337 337 337 337 337 337 338 338 337 337 336 336 336 336 337 337 337 336 336 335 334 335 334 332 330 328 328 328 328
308 309 310 309 309 309 309 309 309 309 309 310 312 310 310 312 311 312 313 312 311 315 318 314 312 311 310 330 347 346 345 345 342 343 342 341 341 339 339 338 338 338 337 337 336 336 336 334 333 333 334 334 335 336 337 337 336 336 337 337 336 337 337 338 338 337 337 336 336 336 336 337 337 336 335 335 334 334 333 332 330 328 327 326 326 326
307 309 310 310 310 310 309 309 309 309 309 310 311 309 311 313 311 311 312 312 312 317 322 319 313 311 308 320 339 343 342 342 342 343 343 342 341 340 339 338 338 337 336 337 337 338 336 332 332 333 334 334 334 335 335 336 336 335 336 336 336 337 337 338 338 337 337 337 337 337 337 338 337 336 334 334 334 333 332 330 327 326 325 325 325 325
307 308 309 310 311 310 309 309 308 309 308 308 310 310 311 313 313 312 313 317 320 320 323 322 312 310 313 319 333 341 340 340 341 341 341 342 341 340 339 339 338 337 336 337 338 338 336 333 333 333 333 335 335 335 335 335 335 335 336 336 337 337 338 338 338 338 338 338 338 338 338 337 336 335 334 335 334 333 331 328 326 325 324 324 324 323
307 307 308 309 311 311 309 309 308 308 308 307 309 311 311 313 313 314 316 319 321 321 319 317 313 312 316 318 327 337 341 339 339 339 339 341 341 340 339 339 338 337 336 338 339 338 336 335 333 333 333 334 335 335 335 335 336 336 337 337 337 337 338 338 338 338 338 338 337 337 336 335 334 334 335 334 334 332 329 327 325 324 324 323 322 321
309 310 310 309 309 311 309 309 309 308 309 308 309 312 313 315 316 317 320 320 319 322 317 312 314 315 314 319 327 333 338 338 338 340 341 341 341 340 339 339 339 337 336 338 339 338 337 335 334 334 334 334 335 335 335 335 336 336 337 337 337 337 337 337 337 337 336 335 335 334 334 333 334 335 334 332 331 330 328 326 325 324 323 322 321 320
308 310 312 310 311 311 309 310 309 309 310 308 310 312 311 316 321 320 325 330 326 321 317 316 320 322 320 326 334 332 334 341 342 343 344 342 342 341 340 341 340 339 337 337 338 337 336 335 334 334 334 334 335 335 335 335 336 337 337 337 337 336 336 337 336 336 334 334 333 333 333 332 333 333 331 328 328 327 326 324 324 322 321 321 319 319
309 312 314 310 310 311 309 311 310 310 314 312 310 311 311 316 321 319 320 324 323 319 321 320 316 323 328 328 335 337 337 344 345 343 342 341 342 342 341 342 341 339 338 337 337 337 336 336 334 334 334 334 334 334 335 336 336 337 337 337 337 336 336 335 335 334 333 333 333 332 331 330 330 330 328 326 325 324 324 323 322 321 320 319 318 318
314 315 316 310 309 311 310 311 310 311 316 314 309 310 313 313 320 330 326 319 319 323 329 326 315 321 326 323 336 344 341 345 345 342 342 342 342 342 341 342 341 339 337 337 336 336 336 336 333 333 333 334 334 334 334 336 337 337 337 336 335 334 334 334 333 332 332 332 331 330 329 328 327 327 326 325 324 323 322 321 320 319 318 318 317 317
314 315 316 310 310 311 310 311 311 311 313 313 312 311 316 317 319 326 323 318 320 320 322 325 318 320 325 326 339 346 342 346 345 342 343 343 342 342 341 342 341 339 337 337 337 336 336 335 333 333 333 333 334 333 334 336 337 337 336 335 334 333 333 332 331 330 330 330 329 328 327 326 326 325 324 323 322 321 321 319 318 318 317 317 317 317
315 318 316 310 311 311 310 311 312 313 312 311 314 310 315 325 324 319 317 319 321 318 321 325 318 319 331 335 340 343 343 346 345 343 344 343 343 342 341 342 341 339 338 337 337 336 336 334 333 332 333 333 333 333 335 336 336 336 334 333 331 330 330 329 329 329 328 328 327 326 325 325 324 323 322 321 321 320 319 318 318 317 317 316 316 316
314 321 319 312 311 311 311 312 312 313 313 311 314 311 311 316 315 315 318 318 319 323 327 328 321 326 340 340 338 341 343 344 344 344 344 343 343 342 341 342 340 338 337 336 336 335 335 333 332 332 333 333 334 335 335 336 334 333 332 330 328 328 327 327 327 327 326 325 325 324 323 323 322 321 321 320 319 319 318 317 317 316 316 316 316 315
312 320 325 317 311 311 312 313 314 314 312 312 316 317 315 313 314 319 319 316 321 330 330 328 327 336 343 339 338 340 340 343 344 343 343 344 342 342 342 341 339 337 336 335 335 334 334 332 331 332 333 333 334 335 334 333 331 330 329 327 327 326 326 325 325 324 324 323 323 322 321 321 320 319 319 318 318 317 317 316 316 315 315 315 314 314
312 318 323 318 313 313 313 313 315 314 312 313 314 314 316 316 319 325 326 322 320 323 326 324 324 337 346 340 340 340 337 341 343 342 344 344 342 342 341 340 338 336 335 334 334 333 332 332 332 333 334 334 334 334 332 330 329 328 327 326 325 324 324 323 323 323 323 322 321 320 319 319 318 318 318 317 316 316 315 315 315 314 314 314 313 313
318 319 317 315 315 315 314 314 314 313 312 313 313 312 315 317 320 330 340 336 321 317 323 319 317 335 349 344 342 340 335 341 343 342 344 342 342 341 340 339 338 336 335 334 333 332 331 332 333 334 334 334 333 332 330 328 327 326 325 324 323 323 322 322 322 321 321 320 319 318 318 317 317 317 316 316 315 315 314 314 314 314 313 313 313 312
320 323 321 319 316 314 315 315 314 313 312 315 317 313 313 318 319 324 329 325 318 321 324 318 322 339 347 345 343 336 333 343 343 342 343 342 341 340 338 338 337 336 335 334 333 332 332 333 334 334 333 333 331 330 328 327 326 325 324 323 322 321 321 321 320 320 319 318 318 317 317 316 316 315 315 314 314 314 313 313 313 313 312 312 312 311
322 326 334 330 320 318 321 322 323 321 314 314 317 312 313 314 313 319 321 316 319 324 321 322 334 343 345 347 346 336 336 345 344 341 342 340 339 339 338 338 337 336 335 333 333 332 333 334 334 332 332 331 330 328 327 326 325 324 323 322 321 320 319 319 318 318 318 317 317 316 316 315 315 315 314 314 314 314 313 313 313 312 312 311 311 311
323 323 336 338 327 325 326 322 322 322 314 313 314 313 314 313 313 322 323 320 324 325 323 331 341 344 346 348 346 341 340 344 343 342 340 338 338 338 338 338 336 335 334 333 332 332 333 334 333 332 331 330 328 327 326 325 324 323 322 321 320 319 318 318 318 317 317 317 316 315 315 315 314 314 314 313 313 313 312 313 312 311 311 311 311 310
322 317 326 332 326 325 323 315 315 316 313 314 314 313 315 315 316 319 320 326 327 320 325 336 340 344 348 345 345 345 342 341 342 341 338 337 337 338 338 338 336 335 335 332 332 333 334 334 332 331 330 328 328 326 325 324 323 322 321 319 319 318 317 317 317 316 316 315 315 314 314 313 313 313 313 313 313 313 312 313 312 311 310 310 309 308
324 319 323 324 320 321 320 314 315 316 314 315 314 314 318 317 316 316 324 336 327 315 329 341 339 345 349 344 344 345 342 342 341 339 337 336 337 338 338 337 336 336 335 334 333 333 333 333 331 330 328 327 327 325 324 323 322 321 320 319 318 318 317 317 317 316 316 314 314 313 313 313 312 312 312 313 312 312 312 312 311 310 309 308 307 306
323 321 324 321 316 322 325 317 314 315 314 315 316 318 321 321 322 323 328 337 331 324 337 342 338 342 343 341 344 343 340 341 339 338 338 337 339 340 338 337 337 336 336 335 333 332 332 331 330 328 327 326 325 323 322 321 321 320 319 318 318 317 317 317 317 316 315 314 313 312 312 313 312 312 312 312 311 311 311 311 310 309 308 307 305 305
322 320 323 323 318 324 330 321 316 319 317 314 316 319 320 320 324 324 322 328 335 335 334 334 337 340 338 338 341 339 338 340 339 338 339 339 340 339 338 338 337 336 336 334 333 332 331 330 328 327 326 324 323 322 321 320 320 319 318 317 317 316 317 317 316 315 314 313 313 312 312 312 311 311 312 312 311 310 310 309 309 308 307 306 305 304
324 325 329 335 328 323 326 324 323 323 318 313 315 318 317 317 320 321 322 328 337 336 331 332 338 341 340 339 340 339 339 340 340 341 341 339 339 338 338 338 336 335 334 333 332 331 330 329 327 325 324 322 322 321 320 320 319 318 317 316 316 316 316 316 315 314 313 313 312 312 311 310 310 311 312 311 310 310 309 309 308 307 306 305 304 303
330 333 330 336 334 323 323 329 330 324 315 317 326 326 321 322 323 320 322 328 332 334 333 331 333 339 340 340 341 341 341 341 340 341 340 339 338 337 336 336 334 333 332 331 331 330 328 328 326 324 323 321 320 320 319 319 318 316 316 315 315 315 315 315 314 313 312 312 311 311 311 311 311 312 311 311 310 309 309 308 308 307 306 305 304 301
332 336 326 328 330 321 324 334 330 321 319 326 336 335 327 326 325 320 322 327 328 331 334 332 334 340 339 339 343 342 340 341 340 338 338 338 337 336 334 333 332 332 331 329 329 328 327 326 325 323 321 320 319 319 318 318 316 316 315 315 314 314 314 313 313 312 311 311 311 311 311 311 312 311 310 310 310 310 309 308 307 306 305 304 302 300
332 334 324 324 326 323 331 336 325 319 326 335 340 339 333 329 327 326 329 332 332 335 343 343 341 341 339 338 340 340 339 339 338 337 337 336 336 336 334 333 332 330 330 329 328 327 326 325 323 321 320 319 319 318 317 316 316 315 315 314 314 313 313 312 312 311 311 311 310 311 311 311 311 311 310 310 310 309 308 307 306 304 303 301 299 299
332 332 328 326 323 322 330 334 328 326 330 335 337 337 334 329 327 326 323 321 324 334 345 347 341 339 338 338 337 336 337 337 336 336 336 335 335 334 333 332 330 329 329 328 327 326 325 323 322 320 319 319 318 317 317 316 315 314 314 314 313 313 313 312 311 311 311 311 311 311 311 311 311 311 310 310 309 309 308 306 304 303 301 298 297 298
331 332 331 327 320 321 327 330 332 330 325 326 327 326 327 325 325 329 325 317 319 328 336 340 338 337 337 336 335 335 335 336 338 337 334 334 335 333 331 330 328 327 327 326 325 325 323 322 320 319 319 318 317 317 317 316 315 314 313 313 313 313 312 311 310 311 311 311 311 311 311 311 311 310 309 309 308 308 307 306 304 303 301 297 296 297
325 326 328 326 321 329 336 332 327 325 324 326 328 330 333 330 328 335 331 319 321 328 332 334 335 336 335 334 333 334 334 337 340 338 333 331 332 331 330 329 327 326 326 324 323 323 321 320 320 318 318 317 317 317 316 316 315 314 313 313 312 312 311 311 311 311 311 311 311 311 311 311 310 310 309 309 308 307 307 305 304 303 301 296 294 295
323 325 334 334 324 328 336 330 323 323 325 329 333 335 336 333 333 335 326 320 326 332 331 332 334 335 334 333 333 333 336 339 339 336 332 329 328 329 328 327 326 325 324 323 322 321 320 319 318 318 317 317 316 316 316 316 315 313 313 312 312 311 311 311 311 311 311 311 311 311 311 310 310 309 309 309 308 307 306 305 304 304 300 295 294 296
324 327 339 337 324 321 326 324 322 323 325 328 333 337 335 335 334 327 321 327 333 333 332 333 334 333 332 332 333 334 336 339 337 333 329 326 326 326 326 326 325 323 322 322 321 320 319 318 318 317 316 316 316 316 315 315 314 313 313 312 311 311 311 311 311 311 311 311 311 310 310 310 309 309 308 307 307 306 305 305 304 302 297 294 295 297
321 324 330 330 324 322 322 318 319 325 330 330 332 334 333 332 330 327 329 335 335 334 335 334 332 332 331 330 332 333 334 335 333 329 327 325 325 325 324 323 323 322 321 320 319 319 318 317 317 317 316 316 316 315 314 314 313 313 312 312 311 311 311 311 311 311 310 310 310 310 310 309 308 308 307 306 305 304 304 303 301 298 296 296 298 298
320 319 321 322 322 322 323 322 319 323 329 328 328 332 332 328 330 334 336 335 333 335 337 334 331 331 329 329 333 334 334 333 330 327 325 324 324 324 322 321 321 320 319 318 318 318 317 316 316 316 315 315 315 314 314 313 312 311 311 311 311 311 310 310 311 310 310 310 309 309 309 308 307 306 306 305 303 301 299 298 297 298 299 300 300 300
320 320 323 325 323 321 322 322 319 321 325 324 325 330 330 330 336 338 336 336 337 336 335 332 331 330 329 333 337 334 330 328 326 324 323 323 323 322 321 320 320 319 318 317 316 317 316 316 315 314 314 314 314 314 313 312 311 310 310 310 310 310 310 310 310 310 309 309 308 308 308 307 307 306 306 305 304 302 300 299 300 301 302 301 301 301
318 318 321 324 325 324 322 319 319 325 328 326 328 332 330 328 332 334 333 337 340 337 333 332 331 331 332 334 333 328 326 325 324 323 323 322 322 321 321 320 319 318 317 316 316 316 315 315 314 314 314 313 313 313 312 311 310 309 308 309 309 310 310 309 309 309 309 308 308 308 308 307 307 306 306 305 304 303 302 302 303 303 302 302 302 301
319 317 318 320 322 325 325 323 323 327 329 328 330 333 331 329 330 332 333 334 335 334 334 333 333 334 333 329 326 325 325 324 323 322 322 321 321 320 320 319 317 317 317 316 315 315 315 314 314 313 312 312 312 312 311 311 310 308 307 308 308 309 309 309 309 309 308 308 307 307 307 307 306 306 306 305 305 304 303 303 303 303 303 303 302 302
319 319 321 323 324 325 325 325 326 329 331 332 332 331 330 330 331 333 334 332 330 331 332 333 334 333 329 326 326 326 324 323 322 322 321 321 321 319 319 318 317 316 316 316 315 315 314 314 313 312 311 310 310 310 310 310 310 308 307 307 308 308 308 308 308 308 307 307 306 306 306 306 305 305 305 305 305 304 303 303 304 303 304 303 303 302
320 320 322 326 329 329 328 328 328 329 329 331 333 334 333 333 333 333 333 331 329 329 330 331 331 328 327 326 326 325 323 322 322 321 321 320 320 319 318 317 316 316 316 315 315 314 314 313 311 311 310 309 309 309 309 309 309 308 307 307 307 308 308 307 307 306 306 306 306 305 305 305 305 305 304 304 304 304 303 303 303 303 303 303 303 302
320 321 323 327 329 329 327 328 330 329 328 329 332 332 331 333 334 332 330 329 328 328 328 328 328 328 328 326 325 324 323 322 321 321 321 320 319 319 318 317 316 316 316 315 315 314 313 312 311 310 309 308 308 308 308 308 308 307 307 307 307 307 307 307 306 306 306 306 305 305 305 305 305 304 304 304 303 303 303 303 303 303 303 302 302 301
320 322 323 325 325 326 325 327 327 327 327 331 332 330 329 331 333 333 331 329 329 330 328 327 327 328 327 325 324 323 323 322 321 321 320 320 319 318 317 317 316 316 315 315 314 313 312 311 310 310 309 308 307 307 307 307 307 307 307 306 307 307 306 306 306 305 305 305 305 305 305 304 304 304 303 303 303 303 303 303 303 303 303 302 301 300
322 323 323 323 324 325 326 327 326 326 328 329 329 330 330 330 332 335 333 329 329 331 330 329 327 325 324 324 323 323 322 321 321 321 320 320 319 318 317 316 316 316 315 315 314 313 311 311 310 310 309 308 307 307 306 306 306 306 307 306 306 307 306 305 305 305 305 305 304 304 304 304 303 303 303 302 302 302 301 301 301 302 302 302 301 300
322 322 321 323 325 325 326 328 328 328 330 329 328 329 329 329 333 335 332 329 328 329 330 330 328 326 324 323 322 322 322 322 320 320 320 319 318 318 317 316 316 315 315 314 313 312 311 310 309 309 308 307 307 306 306 306 306 306 306 306 306 306 306 305 305 304 304 304 304 303 303 303 302 302 302 302 301 301 300 299 299 299 300 300 300 299
Wind_Speed
5 4 7 8 8 10 11 9 8 6 7 6 5 5 6 6 5 4 5 7 6 5 7 10 8 7 9 10 5 4 7 10 10 11 11 11 11 12 14 14 15 14 11 13 21 23 21 21 25 28 28 27 27 28 29 28 28 32 35 33 28 27 26 25 23 24 25 23 22 22 22 22 20 19 18 16 16 16 16 15 14 13 13 12 10 9
5 8 9 8 7 8 9 9 8 8 11 9 5 5 6 6 5 5 5 6 6 5 5 6 7 8 11 8 5 7 9 11 12 14 12 12 10 10 13 14 13 9 7 12 15 16 19 20 23 26 27 28 29 32 33 33 33 34 36 35 31 29 27 26 25 25 25 23 23 23 22 21 19 18 18 18 17 17 16 15 14 14 13 11 10 9
7 9 8 8 7 6 7 8 10 9 10 8 6 5 5 4 4 5 6 6 5 4 4 6 5 9 11 5 7 9 9 10 14 17 16 15 12 10 11 12 12 9 9 12 10 12 17 19 21 23 25 27 29 32 32 31 32 34 36 33 28 26 27 27 24 23 23 22 22 22 21 20 18 17 17 18 18 16 16 16 15 14 12 11 11 9
7 7 8 8 7 7 7 7 11 10 8 7 6 5 5 4 3 4 6 7 8 4 3 5 5 7 7 2 6 5 4 7 11 14 15 16 16 15 15 14 14 13 13 13 11 11 16 19 21 21 21 23 25 27 28 30 33 35 35 32 27 25 27 28 24 21 21 21 20 19 18 18 17 17 16 17 17 16 16 17 15 12 10 10 9 7
5 5 9 9 8 10 9 7 11 9 7 7 8 6 4 5 5 5 3 5 8 5 3 4 3 5 5 5 6 0 6 7 7 8 10 10 11 12 12 13 14 16 16 16 14 12 13 17 19 19 20 21 21 21 23 29 32 32 34 34 31 29 29 28 24 21 21 21 20 17 17 17 16 16 16 16 17 15 15 15 14 11 10 9 7 6
6 6 12 13 11 11 10 9 10 10 7 8 9 8 7 6 7 9 4 1 3 5 3 5 3 6 4 7 6 3 6 7 5 8 12 9 7 8 10 12 12 12 14 15 15 13 12 13 16 18 18 17 16 15 20 26 27 27 31 33 32 31 29 28 25 21 21 21 20 19 19 19 18 17 18 18 19 18 16 16 14 11 9 8 8 10
6 8 13 14 12 12 12 10 9 10 8 7 5 8 9 8 8 10 4 2 2 5 5 7 7 5 5 6 5 6 8 8 5 9 12 9 8 9 10 11 11 11 11 10 11 12 12 13 14 16 17 17 17 18 23 26 25 25 29 31 30 29 28 27 24 22 21 20 20 20 21 22 21 20 20 19 19 19 17 16 14 13 12 12 14 14
8 12 13 14 14 12 12 10 9 10 8 6 4 8 9 10 11 11 4 3 4 3 6 6 8 5 5 5 4 7 8 7 7 9 10 8 8 10 11 10 11 12 10 9 11 12 12 13 14 17 20 22 22 25 29 30 28 28 29 29 27 25 24 23 22 22 20 20 20 20 22 21 20 20 19 17 17 17 17 16 16 16 17 17 17 15
9 13 14 16 14 11 10 9 9 9 7 6 6 6 7 8 9 7 4 4 3 1 6 6 6 6 6 2 4 7 7 7 9 12 13 12 12 12 12 11 10 6 4 6 9 11 12 15 18 23 26 26 25 29 32 30 29 30 29 27 25 23 21 19 20 21 20 20 20 21 21 19 17 17 17 17 17 18 18 20 20 20 20 18 16 14
8 11 12 15 12 10 10 10 10 9 6 5 7 7 6 6 5 4 5 5 3 3 6 8 6 5 4 2 5 5 5 8 10 11 12 13 13 12 11 11 8 5 4 5 8 9 13 19 26 31 32 27 26 29 31 26 26 29 28 26 25 23 22 20 21 22 21 20 20 21 21 19 17 17 18 18 19 21 22 23 22 21 20 18 16 14
8 9 8 10 11 9 10 11 11 10 7 6 7 7 6 4 1 1 3 3 3 5 7 10 10 8 5 4 6 6 8 12 11 8 10 10 11 12 11 9 7 7 6 7 9 10 16 25 30 33 34 32 30 31 33 31 29 30 29 29 27 25 25 25 24 23 21 20 20 20 20 20 19 20 21 22 23 24 24 24 22 21 19 17 15 13
8 10 8 7 10 11 10 10 11 11 9 6 6 6 6 3 2 1 2 2 5 6 7 9 9 9 8 5 7 10 11 15 15 13 15 15 14 13 10 7 7 8 7 9 11 11 15 20 23 27 29 30 30 30 33 34 33 31 31 33 32 28 29 28 26 24 21 21 20 19 20 20 20 22 24 25 25 25 24 23 22 21 19 17 15 13
6 8 9 7 9 12 11 8 8 9 9 7 5 7 6 2 2 4 3 3 5 5 7 7 6 8 9 5 11 15 12 13 16 16 19 20 17 14 10 9 8 8 9 9 10 11 11 11 15 20 23 26 28 28 30 32 32 31 30 32 33 32 32 30 27 25 22 21 20 18 19 20 21 23 25 25 24 23 23 23 22 20 18 16 14 12
4 6 8 10 8 11 13 9 7 8 10 10 6 6 7 4 4 5 4 2 3 5 7 6 5 5 5 4 11 18 15 16 18 17 18 18 16 13 10 10 9 9 10 9 10 11 10 10 14 18 21 24 26 28 30 30 31 31 30 28 29 30 31 30 27 26 23 20 19 18 19 21 22 23 23 23 23 23 23 23 21 18 16 14 12 11
6 5 8 11 7 10 14 11 8 7 8 10 5 5 6 5 5 4 3 4 4 5 5 3 3 4 5 4 9 17 18 16 15 9 8 9 9 10 9 10 11 11 10 9 10 11 10 13 17 19 22 25 26 28 28 27 28 29 28 26 25 26 28 29 28 25 22 19 18 19 20 21 22 22 23 22 23 24 24 22 19 17 14 13 13 12
7 5 6 9 7 11 15 11 9 7 6 8 5 5 5 5 5 2 3 6 5 3 3 2 3 4 5 3 2 10 13 10 8 7 10 11 11 11 11 10 11 10 10 9 9 10 11 15 20 20 22 23 25 26 24 25 27 27 25 25 25 25 26 27 27 25 22 21 20 21 22 23 24 25 25 24 23 23 22 20 18 16 14 13 13 13
6 4 5 9 8 12 15 11 11 9 6 5 6 6 5 6 6 3 3 2 4 4 4 2 3 4 1 2 6 3 10 8 9 10 11 12 13 13 11 10 10 10 11 9 9 10 12 15 18 20 21 22 24 24 24 25 27 27 25 26 26 26 26 27 27 26 24 24 23 23 24 25 26 26 25 24 22 21 19 17 16 15 15 14 15 14
6 3 6 9 10 12 15 13 10 10 8 5 6 6 4 5 3 3 2 1 3 4 4 1 4 3 1 1 4 4 10 9 9 11 11 12 13 13 11 10 10 10 10 10 10 11 12 13 16 18 20 23 24 25 26 26 26 28 28 28 28 28 28 29 29 29 28 27 26 26 25 25 24 24 23 22 21 20 18 17 16 16 16 15 15 14
3 2 5 8 12 10 11 11 8 9 8 6 6 7 6 5 3 1 2 2 3 4 3 3 2 2 2 4 3 6 10 10 10 11 12 13 13 11 11 10 10 10 10 10 11 11 11 12 14 17 20 22 23 25 26 24 25 28 29 29 29 29 30 31 31 31 29 28 27 26 24 23 22 21 21 21 20 18 17 17 17 16 16 16 15 15
0 3 3 7 11 8 6 8 7 7 5 4 6 7 4 4 4 3 3 3 3 4 3 2 2 2 4 5 8 11 11 12 14 13 14 16 15 13 12 12 11 11 11 10 11 11 10 11 14 17 21 22 22 24 24 24 25 28 28 29 29 29 31 32 32 31 29 28 26 24 23 21 21 20 20 19 19 18 18 17 17 17 16 16 16 15
2 2 3 4 6 7 5 5 7 7 6 5 5 4 3 3 2 2 2 2 4 4 3 2 1 4 5 3 7 11 12 14 17 16 14 14 14 14 14 13 12 11 12 12 12 11 10 12 15 17 20 22 23 23 23 24 26 28 28 29 30 30 31 31 30 30 29 27 25 24 22 21 21 20 19 18 17 17 17 16 16 16 15 16 15 14
2 1 3 3 4 5 4 4 7 8 7 6 4 3 5 5 3 2 1 3 2 4 4 5 2 6 5 1 3 8 11 14 16 17 14 12 13 13 13 14 13 12 13 13 12 11 10 11 15 18 20 22 21 20 22 25 26 26 27 29 29 30 30 30 30 29 28 27 25 24 23 22 21 20 19 18 17 16 16 15 14 14 15 15 14 13
4 1 2 3 4 5 4 5 9 9 6 6 4 3 4 5 5 5 3 4 1 1 1 4 2 6 5 2 1 6 10 12 14 15 13 12 12 12 12 12 13 12 12 13 12 10 9 12 16 18 19 20 20 21 24 25 26 26 26 27 28 28 29 29 29 29 28 27 27 26 25 24 22 20 19 19 17 16 14 12 13 14 15 14 14 15
4 1 2 2 1 1 1 1 4 6 5 4 2 3 4 4 5 6 5 3 2 1 1 3 2 6 5 6 3 6 9 9 11 12 13 12 10 11 13 12 11 12 12 12 11 9 9 13 16 16 17 18 19 22 24 25 26 27 25 25 27 28 28 29 28 28 28 29 28 27 26 24 23 21 20 19 17 16 14 13 15 16 14 13 15 16
3 2 2 4 4 4 2 1 0 2 3 4 3 3 4 5 5 4 3 3 2 2 4 6 3 6 5 7 4 7 11 7 7 9 12 13 12 11 11 11 11 12 12 13 11 10 11 12 12 13 15 18 20 22 25 26 27 27 26 26 28 29 29 29 29 29 29 29 28 26 25 23 22 21 19 18 17 16 16 18 18 15 15 17 18 16
2 2 4 5 5 7 6 5 5 4 3 2 3 4 3 6 8 5 3 4 1 3 4 5 4 5 5 8 5 7 14 10 7 8 9 11 13 14 12 12 12 12 13 14 12 11 11 10 10 12 15 19 21 23 25 26 27 27 27 27 28 30 30 29 30 30 29 28 27 25 23 21 20 19 17 16 15 13 16 18 16 15 18 19 17 15
2 1 3 6 6 6 6 5 5 5 5 3 3 4 1 4 8 6 4 4 4 3 2 3 5 3 2 6 5 4 11 11 8 8 9 8 11 13 13 12 12 12 12 13 11 11 11 10 10 12 16 20 22 23 25 25 26 28 28 27 28 30 30 30 30 29 28 26 25 23 21 20 18 17 16 16 14 13 16 15 14 17 20 18 16 16
3 2 2 5 6 6 4 4 4 6 6 5 5 3 3 3 5 7 5 5 5 4 2 6 3 5 3 2 2 5 8 9 8 8 9 9 11 11 11 12 13 12 12 12 12 12 12 11 10 12 16 20 21 23 25 25 26 27 28 28 29 30 30 30 29 28 26 25 23 21 19 18 17 17 18 16 13 13 13 12 15 20 20 18 17 17
4 3 5 2 3 2 2 2 5 7 5 6 7 8 4 0 3 6 6 6 6 5 6 6 5 5 5 4 4 5 7 9 9 8 7 8 11 12 13 14 14 13 13 13 14 13 12 12 11 12 16 20 22 23 24 25 26 27 27 29 30 30 30 29 27 26 24 22 21 20 18 18 18 19 18 16 12 12 13 15 20 22 19 18 18 18
4 3 4 3 1 3 5 3 4 7 6 5 6 7 6 5 5 5 5 5 7 5 5 7 7 4 3 4 5 7 8 9 10 9 8 8 10 12 14 15 14 14 14 14 14 13 13 12 12 14 18 20 22 24 24 25 27 28 28 29 30 30 29 28 26 25 23 21 20 20 20 20 20 19 17 14 15 18 20 22 24 22 20 20 19 18
3 2 2 4 3 4 5 4 2 5 7 6 5 5 4 7 4 2 2 3 5 5 2 5 5 3 1 2 5 8 11 11 12 12 11 9 10 13 14 14 14 13 13 14 14 13 13 13 13 15 18 20 22 25 26 26 27 28 28 29 30 31 29 27 26 25 25 25 24 24 23 21 20 19 16 14 18 22 24 24 23 22 22 22 20 18
2 1 2 5 5 5 5 4 5 2 6 4 5 6 3 6 4 3 3 3 5 8 8 7 1 4 3 4 6 9 12 14 14 13 12 10 10 13 14 14 14 14 14 15 15 14 14 14 14 15 18 22 25 26 27 28 28 27 28 30 30 31 29 28 27 27 27 27 27 26 25 23 23 20 15 15 20 23 24 24 23 23 23 21 19 17
2 3 2 4 4 4 5 3 5 6 5 0 6 7 4 4 4 2 1 4 5 9 10 5 5 6 5 8 8 9 11 13 14 13 12 11 11 11 12 14 14 13 14 14 14 15 15 14 15 17 20 23 25 26 27 28 27 26 27 30 31 31 30 29 29 28 28 27 26 26 26 25 22 19 17 19 22 23 22 23 23 23 22 20 17 16
2 5 3 2 4 2 6 4 6 5 2 5 6 6 5 4 5 6 3 5 5 4 6 7 5 5 8 10 12 13 13 13 13 12 12 13 13 11 12 13 14 13 13 13 14 14 13 13 16 20 22 23 25 26 26 27 28 28 29 30 30 30 30 29 29 29 27 26 26 26 27 25 21 20 21 22 21 19 20 21 23 22 21 18 16 15
3 5 2 2 3 1 3 5 6 2 6 6 6 4 5 4 7 9 3 4 3 5 8 9 10 11 11 8 8 12 12 11 10 10 11 13 14 15 15 14 15 16 15 15 15 15 14 17 19 21 23 25 27 28 29 31 33 33 32 31 30 28 28 27 27 27 27 26 26 26 26 24 21 22 23 21 19 19 20 21 23 23 21 18 16 16
5 4 2 2 2 1 2 4 3 5 6 5 7 5 1 2 4 6 2 5 3 5 10 12 12 13 9 3 3 6 9 9 8 5 6 8 10 13 15 14 14 15 15 14 15 16 17 20 22 23 24 26 28 29 31 33 34 33 31 30 30 28 26 25 25 25 26 25 25 24 24 23 22 23 23 21 21 21 21 22 24 23 21 19 18 19
6 4 2 2 2 2 3 2 1 2 3 4 4 4 2 2 1 5 4 2 6 5 6 11 12 10 9 7 5 7 9 9 6 1 1 4 7 9 12 13 14 14 13 14 17 20 23 25 26 27 28 27 28 30 32 32 33 33 31 30 29 28 27 25 24 23 24 24 24 24 24 23 24 25 25 23 22 22 21 23 24 22 20 20 21 21
4 4 4 2 1 2 4 2 2 2 1 4 5 5 5 4 3 6 6 2 7 7 3 12 14 12 11 11 9 9 10 8 5 4 4 5 8 9 10 11 13 15 16 17 19 21 24 27 28 29 30 29 29 31 33 33 32 32 30 29 29 29 28 26 24 23 23 23 24 24 25 25 26 26 25 24 23 23 23 25 25 22 20 21 23 24
7 4 5 4 3 3 4 3 1 1 2 5 7 7 7 5 3 5 5 3 6 6 2 8 14 14 14 15 13 11 9 7 6 6 6 8 9 10 11 10 11 15 19 23 24 23 24 26 27 27 29 30 30 32 33 33 32 31 29 28 28 28 28 27 26 25 24 25 26 27 27 27 26 24 24 24 25 25 26 26 25 22 20 23 26 27
6 5 4 4 3 2 3 2 1 2 1 3 5 7 7 3 4 7 1 6 6 4 3 5 12 14 15 16 14 12 9 7 8 8 9 10 9 9 12 13 12 13 16 21 26 28 28 28 28 26 27 29 29 30 31 31 30 28 27 27 27 26 26 27 27 26 26 27 28 28 27 26 25 24 26 27 28 27 27 26 24 23 23 26 27 28
3 3 3 3 3 2 3 2 1 2 3 4 5 6 6 2 7 5 5 7 5 5 2 5 10 11 13 14 12 9 6 4 6 11 12 12 10 9 12 16 17 18 18 20 24 28 29 29 29 27 26 28 29 29 29 29 27 26 26 27 26 26 27 28 28 28 28 29 29 28 27 26 26 27 28 28 27 26 26 25 25 26 28 28 27 27
2 2 2 2 2 2 3 2 1 3 3 2 3 4 4 3 2 4 6 4 4 5 4 5 9 10 12 13 8 4 3 5 11 16 15 13 13 11 11 15 17 18 19 21 25 27 26 25 26 26 26 28 29 28 28 27 25 24 27 27 26 27 28 29 30 30 30 30 30 29 28 28 28 29 28 27 26 26 27 27 28 28 28 27 25 25
1 1 0 2 3 2 3 3 1 2 2 3 3 4 5 3 5 5 3 2 4 5 4 7 10 9 9 7 5 5 7 10 13 15 14 13 13 13 12 14 16 17 19 21 23 25 26 24 24 26 26 27 27 27 27 27 25 24 27 27 27 28 29 31 32 33 32 31 30 29 28 28 28 28 28 27 26 27 28 28 27 25 24 24 24 24
2 1 1 1 1 3 3 1 2 4 5 4 1 2 1 3 5 4 2 3 4 3 4 6 7 7 7 7 8 9 10 11 12 14 13 13 13 13 13 14 16 19 21 22 23 25 27 26 25 26 26 26 26 27 28 29 27 26 27 28 30 31 32 33 35 34 32 31 29 28 29 29 29 29 29 28 28 28 28 27 25 23 22 22 22 22
1 1 2 1 1 2 4 4 4 4 5 4 1 3 3 3 2 2 4 2 4 4 3 5 7 7 8 9 10 10 10 11 13 13 13 13 13 13 14 15 19 22 23 23 25 26 27 27 27 26 25 25 26 28 29 31 30 29 28 30 33 34 34 35 35 33 32 31 31 31 31 30 29 28 27 27 28 28 28 26 24 23 22 21 21 21
3 4 3 2 1 2 2 1 3 3 4 5 4 1 1 3 4 3 3 1 2 4 1 4 8 9 10 11 11 9 9 12 13 12 12 13 13 13 14 15 19 24 25 24 24 25 26 27 27 26 25 25 27 29 30 31 32 31 31 32 35 36 36 36 35 33 33 32 32 32 31 29 28 27 27 28 28 28 27 25 24 23 23 22 21 21
3 3 2 2 2 2 1 3 5 4 4 6 6 5 4 5 5 4 4 1 1 2 2 5 7 7 8 10 12 11 11 13 14 13 11 12 12 13 13 14 18 23 26 26 26 26 26 25 24 24 25 25 28 31 32 32 33 34 34 34 36 37 37 36 35 34 33 33 32 32 31 29 28 28 29 29 29 28 26 24 23 23 22 22 23 23
3 4 4 3 2 1 3 6 5 4 4 5 4 4 4 5 5 5 5 2 3 5 4 5 8 8 7 6 9 12 12 12 14 14 12 10 11 12 12 14 18 22 25 28 29 29 27 25 24 25 25 26 29 32 34 34 35 36 36 36 36 37 37 35 35 34 32 32 31 30 30 29 28 28 27 26 26 25 23 21 21 20 19 21 23 24
2 2 2 1 2 2 2 4 4 4 5 5 5 4 5 5 4 5 6 5 5 6 5 4 5 7 9 9 8 10 11 10 11 14 13 11 11 11 13 16 21 23 25 28 30 29 28 28 28 28 28 27 29 32 34 35 36 37 37 36 36 37 36 35 34 33 32 31 30 29 28 28 26 26 25 24 24 23 20 19 19 18 18 20 23 22
2 3 1 2 3 1 2 3 1 2 0 3 5 5 6 5 4 6 6 4 4 5 5 5 5 4 8 11 11 11 11 10 10 12 13 12 12 13 16 19 22 23 25 28 28 28 29 30 29 29 29 28 30 33 34 34 36 36 37 37 36 36 36 35 33 32 30 30 29 28 28 27 26 26 25 25 25 24 22 20 19 18 17 19 21 20
1 1 0 3 3 3 5 5 3 3 2 4 5 5 6 5 4 6 5 3 2 5 6 7 7 5 5 7 9 11 12 11 11 12 11 10 12 17 21 22 22 22 25 27 27 26 28 28 28 29 29 29 31 33 34 34 35 35 36 37 36 35 35 35 32 30 29 30 29 29 29 29 28 28 28 27 26 26 24 23 21 19 18 17 17 17
Wind_Direction
161 208 221 206 208 204 207 205 196 225 238 224 211 219 221 212 231 217 224 241 186 180 230 221 225 227 235 235 197 132 126 135 143 151 165 172 169 170 173 179 179 180 175 163 171 175 175 175 172 170 168 168 169 168 165 164 173 173 168 170 173 173 168 166 180 184 179 179 179 182 186 187 189 192 195 194 196 204 211 216 218 217 216 215 217 219
174 213 225 206 201 204 207 199 189 217 234 240 233 232 238 215 222 229 231 250 209 196 239 221 219 232 237 230 171 143 137 146 156 159 172 177 177 181 179 181 179 169 145 153 166 171 173 174 170 168 164 166 168 167 167 164 164 166 167 170 169 168 166 165 178 187 184 184 186 187 188 188 186 187 192 193 195 200 205 209 209 208 207 206 215 220
206 220 215 199 199 203 209 197 195 218 228 235 236 230 248 220 212 245 244 258 230 207 242 218 205 234 240 210 168 174 159 165 170 166 172 174 174 186 182 181 179 164 150 160 166 167 173 173 168 166 164 169 170 166 164 159 158 163 166 167 163 165 167 168 181 191 187 187 190 193 193 190 185 184 190 192 193 194 196 200 199 200 204 208 219 218
209 214 198 193 195 202 220 202 192 217 231 229 229 215 241 238 207 233 241 256 243 210 198 206 211 232 236 181 184 194 127 154 175 172 174 173 174 184 184 181 179 172 164 169 171 167 174 174 168 165 164 166 168 164 159 156 160 164 164 162 160 169 173 173 184 195 193 191 191 196 195 191 186 182 183 187 187 188 191 194 195 200 205 211 218 210
215 178 175 191 203 202 217 211 192 208 228 231 229 206 218 241 237 237 235 261 255 244 182 176 239 253 223 200 207 119 81 139 167 167 176 187 184 180 181 183 183 179 172 170 174 172 173 172 165 161 161 163 163 159 154 156 160 163 163 162 166 175 177 178 185 194 199 196 192 191 186 182 179 173 176 180 181 183 187 189 192 196 196 198 198 172
226 178 171 193 209 203 212 219 200 197 214 239 234 209 208 218 236 249 251 3 290 270 231 158 201 277 256 217 201 118 116 149 161 173 181 192 188 175 181 189 193 190 180 170 170 171 167 163 156 151 151 151 146 139 142 150 158 163 165 167 173 178 180 183 188 195 201 200 196 193 185 179 172 168 176 183 180 181 183 183 183 180 175 171 159 138
216 191 178 192 203 205 215 224 210 193 200 235 210 184 208 216 232 246 231 116 208 248 243 180 191 257 278 241 197 142 149 156 166 187 189 191 184 185 191 191 193 194 184 162 156 159 159 154 142 136 134 128 121 125 137 149 159 166 167 170 176 179 182 186 191 198 203 202 201 201 197 191 182 176 180 185 181 179 180 176 168 157 149 145 141 135
191 191 186 190 196 206 215 218 211 191 195 228 181 168 203 217 233 246 228 186 214 266 286 228 189 203 245 243 164 141 150 157 178 191 194 202 198 195 197 197 200 196 181 157 150 153 150 137 127 127 125 119 122 135 149 160 167 170 171 172 175 177 180 184 191 201 205 207 207 204 201 196 189 183 180 179 174 171 169 159 147 140 137 135 135 136
182 195 189 186 194 208 211 211 205 191 199 225 212 199 205 210 226 238 228 229 225 299 295 268 188 193 244 260 129 145 158 171 192 195 194 199 202 200 196 199 207 196 155 137 145 146 134 121 120 121 120 122 134 150 161 166 168 173 174 173 175 176 178 183 192 200 204 209 210 205 200 191 184 181 174 170 163 158 154 145 139 136 134 134 134 136
187 205 192 185 197 206 201 208 204 196 203 212 222 232 226 220 225 213 206 222 227 215 251 255 213 202 257 244 157 157 175 191 199 201 201 199 198 202 197 196 191 147 108 118 133 132 120 117 118 119 125 140 154 160 165 165 166 174 177 176 176 172 176 188 194 197 200 202 203 201 197 189 181 173 165 162 155 150 147 142 140 138 137 138 137 136
200 206 202 190 199 198 192 203 205 202 197 184 210 240 254 250 216 218 214 192 222 238 243 242 221 208 236 226 178 178 189 188 186 196 210 208 202 204 199 187 164 134 129 130 129 125 118 118 123 131 144 157 161 163 170 171 172 178 180 179 177 173 179 189 192 194 194 194 196 196 195 191 181 170 162 158 153 149 147 143 142 141 139 138 135 131
215 202 211 199 194 188 185 200 205 206 205 190 190 212 252 304 54 285 279 170 214 243 251 240 217 207 224 221 191 207 203 182 177 187 198 201 201 201 191 167 146 139 142 137 136 134 124 123 133 144 151 155 157 165 172 172 174 179 180 180 177 177 182 186 189 191 189 190 191 191 191 188 179 170 162 156 152 151 149 145 143 141 138 133 128 126
229 216 211 199 194 185 181 194 199 203 209 208 185 179 207 240 156 216 229 200 218 238 249 232 193 201 230 224 193 205 211 189 186 190 190 192 193 190 175 154 148 145 145 144 143 141 134 134 144 148 151 153 158 166 171 171 172 176 181 181 176 176 180 182 184 185 183 185 187 186 185 180 172 167 160 153 152 154 152 149 146 141 137 131 125 119
225 249 218 199 199 187 183 184 188 200 204 205 195 169 184 184 173 210 222 212 222 232 244 229 184 203 249 253 189 191 201 197 196 198 190 187 184 174 158 146 149 151 150 151 148 146 140 139 146 150 153 158 162 168 171 171 172 174 180 182 176 173 174 175 177 177 177 179 182 183 178 172 168 164 160 156 157 158 156 152 149 143 136 128 117 107
193 238 219 199 192 180 186 190 182 181 192 205 193 139 167 178 166 194 198 185 207 236 252 220 162 182 204 231 193 187 197 196 192 190 162 152 142 136 136 142 153 156 155 154 148 143 137 141 149 155 159 165 167 169 171 170 170 173 178 180 173 167 168 169 170 170 172 174 175 175 170 166 165 163 160 157 157 158 155 152 146 138 131 122 110 101
195 232 219 199 191 177 185 190 172 160 184 204 174 142 185 182 152 168 191 177 173 210 261 196 182 213 200 253 271 184 188 175 149 124 115 122 125 132 143 152 156 158 158 156 145 135 137 148 157 162 165 167 166 166 168 166 168 172 174 173 168 165 164 164 164 163 164 166 166 164 161 158 158 160 158 153 151 153 150 147 141 131 124 117 110 104
183 252 234 191 195 189 182 181 178 175 178 182 177 188 194 159 130 129 214 208 108 152 250 212 201 284 272 334 343 145 155 130 121 131 132 137 140 144 153 157 158 161 156 149 139 138 148 157 162 164 166 165 163 166 166 164 167 170 168 165 163 161 159 158 157 156 158 158 156 155 154 154 154 155 155 151 147 146 144 140 134 127 121 117 114 109
157 244 258 191 192 202 184 175 188 188 168 165 195 197 161 156 145 100 158 294 81 152 269 275 189 271 92 165 339 111 141 134 131 138 136 141 150 153 156 158 156 151 143 136 136 147 157 161 161 162 165 164 163 167 166 163 164 165 161 158 157 154 152 151 149 149 151 152 151 150 150 151 151 151 149 147 145 143 140 134 129 126 122 119 118 113
145 204 268 197 187 205 185 171 194 207 184 162 179 179 159 178 220 92 143 200 137 164 269 309 231 235 181 181 161 149 156 146 137 139 142 153 162 156 151 153 147 137 135 137 144 154 161 159 158 158 160 161 161 163 165 163 160 159 156 154 151 148 147 146 144 145 147 149 148 147 146 148 148 147 145 143 143 141 137 131 129 127 123 121 120 115
68 151 244 206 181 179 181 177 193 208 188 131 146 177 171 146 171 181 168 165 153 172 217 288 313 266 238 208 171 170 168 150 146 153 161 166 166 158 156 156 148 142 143 147 154 159 159 155 154 155 156 157 156 157 161 160 155 154 152 149 146 143 142 141 142 143 144 145 145 143 144 145 145 145 144 142 142 139 134 131 130 127 125 124 121 120
316 151 211 217 166 155 187 202 186 179 173 151 148 172 164 139 168 171 153 157 143 151 176 172 274 267 256 221 174 173 167 160 161 165 170 170 162 158 160 156 150 147 148 153 159 159 156 151 148 149 153 154 154 155 156 155 151 149 147 145 142 140 138 138 139 140 140 139 141 142 142 142 143 144 143 142 141 136 130 129 129 128 127 123 122 123
259 220 187 194 163 166 193 185 166 170 174 161 154 171 164 162 158 126 249 267 127 135 165 151 197 264 259 209 165 174 171 170 170 167 165 159 154 159 161 154 150 149 151 156 158 155 152 148 146 148 152 153 153 152 149 146 143 142 142 142 140 138 136 136 136 137 138 138 139 139 138 139 139 139 139 136 134 130 127 126 126 128 127 122 120 120
196 166 164 182 184 181 179 161 161 164 154 136 147 175 155 145 132 127 200 253 143 135 176 126 157 262 266 329 334 185 178 175 171 164 155 147 149 155 153 149 148 146 149 153 151 151 148 145 147 148 150 152 151 146 141 139 138 138 139 139 137 134 134 135 136 137 138 138 136 135 134 134 133 133 132 128 125 125 125 126 128 128 127 124 119 116
186 188 167 152 123 125 47 71 145 145 133 129 157 151 135 153 156 147 174 194 158 198 156 118 205 259 280 332 313 183 168 173 174 155 139 138 142 146 145 146 146 142 145 147 146 144 142 143 146 146 147 149 146 140 137 136 136 136 137 135 133 132 133 134 135 136 135 133 131 131 130 128 127 127 124 120 119 118 118 128 133 128 125 125 120 115
196 214 127 117 119 120 89 18 68 188 167 162 167 145 144 155 146 152 160 94 67 232 160 138 216 256 286 337 329 159 146 156 171 141 135 144 142 140 143 144 144 143 144 147 145 142 144 146 147 145 145 145 141 139 138 137 137 136 136 134 132 132 131 132 133 132 131 129 128 128 128 127 126 124 120 118 119 116 117 127 132 128 124 123 118 111
180 187 114 130 158 160 171 193 201 199 189 172 134 114 136 161 154 169 160 96 67 243 148 141 208 253 297 340 353 145 148 152 153 134 137 146 142 145 150 149 150 150 151 151 146 144 146 146 143 141 142 143 141 141 140 139 138 137 136 135 135 133 130 129 130 128 127 127 125 125 126 126 127 124 120 120 123 126 131 133 130 128 127 123 114 106
113 204 128 133 158 171 184 201 185 150 151 173 129 86 5 198 165 139 119 143 181 181 158 211 202 185 310 335 2 117 143 141 135 137 140 140 144 149 150 149 150 149 151 149 143 142 144 142 141 140 141 142 143 143 141 140 140 139 137 135 134 132 129 128 128 127 126 126 124 124 125 127 128 126 124 126 130 138 145 142 132 128 127 122 113 108
96 263 212 129 158 190 189 178 150 123 137 157 154 181 269 253 165 132 135 194 174 133 260 264 208 155 187 248 62 114 132 128 128 144 148 145 150 149 144 144 144 143 146 145 143 146 146 143 141 140 141 143 143 142 141 141 140 139 137 134 132 131 130 129 128 125 124 124 124 125 128 130 130 130 133 139 140 143 150 148 137 130 125 116 109 109
119 230 234 155 175 243 359 115 142 124 135 151 166 200 213 189 190 167 171 197 156 146 217 215 182 187 187 169 138 123 127 131 134 139 141 144 148 147 144 143 142 144 148 149 150 152 151 149 146 142 144 144 143 142 141 141 141 140 137 135 134 134 133 133 131 129 129 128 127 127 129 131 132 134 141 146 140 138 147 144 135 129 120 109 106 108
131 224 225 144 141 311 352 2 135 126 133 146 164 193 174 150 199 189 171 176 148 156 205 168 159 224 227 169 152 118 106 111 115 115 124 142 148 145 145 145 145 149 152 152 155 156 154 153 149 146 148 148 146 145 143 143 143 142 140 138 138 138 139 141 141 140 139 138 136 136 135 134 135 139 144 141 130 131 136 135 131 124 114 108 106 109
125 228 236 105 82 314 335 3 42 133 149 163 189 209 158 131 159 191 168 144 111 105 69 91 134 222 294 110 129 117 112 112 116 125 136 148 149 144 145 146 146 149 152 154 155 155 154 155 153 151 150 150 149 146 144 145 145 143 141 140 140 141 144 146 145 143 144 144 145 145 142 139 144 150 149 136 129 130 131 130 126 120 115 111 108 110
88 54 337 71 73 317 322 24 12 69 123 146 225 233 176 127 141 197 202 190 141 125 92 55 27 226 188 137 134 128 125 125 129 136 140 145 148 147 148 149 149 151 154 156 156 155 158 160 159 157 153 150 149 148 147 148 146 143 140 140 141 143 145 148 147 145 146 147 148 146 142 142 150 157 154 140 133 130 128 127 125 122 118 113 110 111
95 92 31 75 90 308 305 48 42 50 83 264 249 222 188 153 154 150 192 206 175 138 126 142 221 219 176 151 139 131 132 136 141 145 145 145 145 144 146 146 149 153 154 155 157 158 162 163 160 156 151 149 148 147 149 147 142 138 139 141 143 145 147 148 147 146 146 148 149 146 144 146 151 155 152 144 136 131 128 127 127 125 121 115 112 111
59 97 99 91 108 295 309 23 60 71 152 239 241 199 189 197 167 153 192 222 199 143 139 164 173 165 169 167 156 154 154 149 149 151 150 147 143 142 145 148 151 153 153 156 159 159 161 160 156 151 147 145 144 143 143 140 136 137 141 143 144 145 146 146 146 148 149 150 151 149 148 150 151 149 147 146 143 139 134 129 128 128 124 119 116 114
68 81 89 56 101 140 340 38 72 153 222 246 274 249 218 202 156 148 176 261 205 131 122 131 146 163 179 184 162 154 151 141 137 145 152 154 153 151 153 157 159 159 161 164 163 161 161 158 154 149 144 143 142 141 141 141 142 144 146 147 146 145 146 146 147 150 152 151 152 152 152 152 152 149 148 150 152 149 140 132 129 128 123 118 116 117
109 96 99 70 83 112 38 69 138 227 254 292 320 310 269 84 103 123 91 334 301 169 145 145 160 167 162 136 107 126 126 118 112 121 145 150 151 154 156 161 164 165 167 168 162 158 159 156 151 146 144 144 144 144 144 145 146 146 145 146 147 146 147 149 150 153 154 154 156 156 155 156 157 154 153 154 154 150 141 134 131 128 122 117 115 118
117 111 86 55 56 110 101 107 219 286 328 342 335 321 326 5 92 141 129 344 304 265 169 148 149 150 137 122 120 119 111 105 103 104 157 126 128 148 155 157 160 162 161 159 157 155 154 153 150 147 147 147 146 147 148 148 148 146 144 145 146 146 148 150 153 157 158 159 160 160 161 163 161 158 156 156 154 149 142 138 135 132 127 120 117 119
82 109 119 105 34 72 96 74 17 29 338 263 270 290 298 277 211 137 110 12 311 305 204 153 148 146 141 133 131 130 120 118 144 195 201 148 134 142 147 150 156 158 155 151 149 149 151 152 152 152 151 149 149 151 152 152 150 146 144 146 148 149 150 153 160 164 164 164 165 165 166 166 163 160 158 157 155 152 147 143 141 138 133 125 119 117
40 61 99 94 42 42 93 98 109 167 218 243 253 282 299 275 196 105 77 308 289 310 304 157 153 152 149 146 145 143 133 139 181 200 184 162 152 145 143 146 152 155 156 155 151 149 151 151 151 152 151 151 153 156 156 154 152 148 147 151 153 153 154 159 167 170 168 167 167 165 164 164 164 163 160 157 157 155 150 147 145 142 137 128 121 116
31 29 51 72 63 60 91 95 211 207 236 254 251 275 288 285 87 84 113 257 267 310 344 155 161 160 155 152 152 153 156 175 195 188 163 152 151 147 147 150 150 151 154 155 152 150 151 150 151 154 155 155 157 158 156 154 152 150 152 155 157 157 160 165 170 170 167 166 164 163 164 165 166 165 160 155 153 152 151 150 148 144 138 131 124 118
31 28 54 98 100 74 82 76 302 266 255 246 250 280 297 19 68 89 205 234 266 296 301 165 169 167 157 157 164 174 185 188 151 145 143 143 145 147 147 147 146 147 149 149 148 148 150 151 154 155 156 157 158 158 156 154 151 152 156 159 159 161 165 167 169 168 165 163 163 163 164 163 160 159 156 153 151 151 152 151 148 142 137 133 128 123
62 34 48 121 136 93 93 89 335 283 263 246 261 305 348 67 122 218 225 223 254 278 268 180 180 181 169 166 169 165 145 112 121 134 142 145 146 144 143 142 141 142 145 145 146 149 149 149 150 150 153 158 159 158 157 154 151 153 158 160 162 165 166 167 167 166 163 161 160 161 160 158 155 155 154 152 150 148 147 146 144 141 139 137 134 129
112 136 153 203 184 131 84 63 79 219 272 323 331 343 21 93 193 227 263 269 243 254 243 191 184 184 171 153 117 99 112 117 125 134 138 141 143 142 143 145 142 140 142 142 145 148 146 143 144 147 152 158 159 159 160 156 150 150 155 159 163 165 164 162 162 161 159 158 158 159 160 159 158 157 157 156 153 150 149 148 148 147 147 145 141 135
14 77 148 253 211 121 115 184 200 213 259 303 46 133 199 229 216 199 201 273 276 262 218 187 172 159 148 136 125 125 127 126 131 136 138 142 145 143 145 146 143 142 146 147 148 149 146 143 143 147 152 157 160 162 163 158 150 145 149 155 160 162 159 158 158 158 158 158 158 159 160 161 160 160 161 161 161 158 157 157 157 157 156 153 149 145
343 236 167 199 303 127 154 202 229 241 271 306 60 157 212 277 302 155 157 218 284 282 212 167 148 141 141 138 135 136 137 138 141 143 143 145 147 146 145 146 146 146 149 150 151 152 150 147 146 148 151 156 160 162 162 159 151 144 144 151 156 158 156 155 155 155 155 156 156 156 157 160 161 162 164 167 167 165 163 163 162 163 164 162 159 155
246 249 182 152 349 43 101 15 331 322 311 326 340 312 314 358 359 31 80 102 284 294 258 156 150 151 148 142 138 140 145 145 141 141 145 145 145 146 144 144 148 149 149 149 151 152 151 148 147 148 148 151 157 158 158 159 155 148 146 150 154 155 154 153 152 151 151 151 152 153 155 156 157 160 163 166 168 166 165 166 168 171 172 172 169 164
289 330 37 73 38 57 75 311 319 319 310 320 333 348 4 1 355 13 27 3 331 26 62 119 125 127 139 144 142 142 147 147 141 141 146 146 146 148 147 147 152 154 152 151 152 152 151 149 148 149 148 148 154 156 156 158 157 153 150 152 153 154 154 152 150 149 149 149 150 152 154 154 154 156 159 162 164 165 167 170 174 175 175 173 171 166
316 8 23 13 23 94 220 258 281 295 294 302 321 340 344 338 346 10 21 29 72 67 69 103 112 111 116 126 135 140 145 148 146 144 147 149 149 150 150 152 155 155 153 153 153 154 154 152 151 151 151 151 154 156 156 156 155 154 154 154 155 155 153 152 151 150 149 150 152 154 156 157 158 159 160 162 165 167 169 173 177 178 177 173 169 165
306 6 28 17 20 23 271 281 318 351 340 334 339 334 319 315 341 17 32 56 84 80 61 65 94 118 125 122 123 132 140 146 149 147 147 149 152 153 154 157 157 156 155 155 156 156 156 157 157 157 155 156 156 156 156 155 155 157 157 156 157 157 154 152 151 151 152 154 156 157 158 160 162 163 162 161 161 163 165 168 173 178 178 177 176 173
5 5 30 91 75 37 261 268 265 115 59 310 317 321 314 320 15 34 26 35 91 119 110 79 56 79 125 135 137 141 146 151 154 151 150 153 158 157 157 158 158 158 157 157 158 159 159 161 162 158 155 157 158 157 156 157 157 159 160 159 160 160 157 153 152 153 156 158 159 159 160 160 160 161 161 159 157 154 150 148 151 155 159 165 172 175
74 331 334 128 155 222 243 248 224 141 162 260 278 304 315 335 37 43 18 15 118 154 144 122 102 90 101 121 136 148 153 153 153 153 150 152 158 157 158 160 160 159 159 158 157 158 159 160 161 158 155 157 159 158 158 159 160 161 162 163 165 164 160 157 156 156 159 161 161 161 160 158 156 156 156 155 153 149 142 136 133 136 140 146 155 162